37P/Forbes (2018)

Japanese version
Home page
Updated on November 20, 2018

---------------------------------------------------------------------

* Profile

* Pictures

* Orbital Elements

Epoch 2018 May 2.0 TT = JDT 2458240.5
T 2018 May 4.12416 TT                                   MPCW
q   1.6102877            (2000.0)            P               Q
n   0.15337273     Peri.  329.98006     +0.25591853     +0.96031958
a   3.4565058      Node   314.59063     -0.85306222     +0.17039448
e   0.5341285      Incl.    8.95650     -0.45474229     +0.22079862
P   6.43
From 688 observations 1993 May 27-2018 Apr. 28, mean residual 0".8.
     Nongravitational parameters A1 = +0.56, A2 = -0.0287.

* Finding Charts

* Magnitudes Graph

        m1 = 7.2 + 5 log d + 25 log r

---------------------------------------------------------------------

The orbital elements are published on M.P.E.C. 2018-H105.
The charts are made with StellaNavigator Ver.8 (AstroArts).
The magnitudes graphs are made with Comet for Windows.

---------------------------------------------------------------------

Copyright(C) Seiichi Yoshida (comet@aerith.net). All rights reserved.